This demonstration page uses our WeatherBlox Daily Observations layout. Learn more.

Left ArrowRight Arrow

34.74481, -87.66753

Hourly Observations for December 4, 2018

Temp ( °F °C ) Dew Point ( °F °C ) Humidity (%) Winds ( mph kmh ) Pressure ( in mb ) Visibility ( mi km ) Precip ( " mm )
12:53 am 00:53 Cloudy 43 6.1 31 -0.6 63 63 NNW 7 11 30.18 1022 10 16 0.00 0.00
1:53 am 01:53 Cloudy 42 5.6 32 0 68 68 NNW 7 11 30.19 1023 10 16 0.00 0.00
2:53 am 02:53 Cloudy 42 5.6 32 0 68 68 NNW 7 11 30.21 1023 10 16 0.00 0.00
3:09 am 03:09 Cloudy 42 5.6 31 -0.6 65 65 NNW 9 15 30.21 1023 10 16 0.00 0.00
3:32 am 03:32 Cloudy 41 5 31 -0.6 67 67 N 7 11 30.21 1023 10 16 0.00 0.00
3:53 am 03:53 Cloudy 41 5 30 -1.1 65 65 NNW 9 15 30.20 1023 10 16 0.00 0.00
4:53 am 04:53 Cloudy 40 4.4 30 -1.1 68 68 NNW 6 9 30.22 1023 10 16 0.00 0.00
5:53 am 05:53 Cloudy 40 4.4 30 -1.1 68 68 NNW 8 13 30.24 1024 10 16 0.00 0.00
6:53 am 06:53 Cloudy 40 4.4 29 -1.7 65 65 NW 9 15 30.24 1024 10 16 0.00 0.00
7:53 am 07:53 Cloudy 40 4.4 30 -1.1 68 68 NW 8 13 30.26 1025 10 16 0.00 0.00
8:53 am 08:53 Sunny 41 5 29 -1.7 62 62 N 6 9 30.27 1025 10 16 0.00 0.00
9:53 am 09:53 Mostly Cloudy 43 6.1 28 -2.2 56 56 NNW 8 13 30.27 1025 10 16 0.00 0.00
10:53 am 10:53 Mostly Cloudy 43 6.1 27 -2.8 53 53 NNW 7 11 30.26 1025 10 16 0.00 0.00
11:53 am 11:53 undefined N/A N/A N/A undefined N/A N/A N/A 0.00 0.00
12:53 pm 12:53 Partly Cloudy 44 6.7 27 -2.8 51 51 WNW 9 15 30.21 1023 10 16 0.00 0.00
1:53 pm 13:53 Cloudy 47 8.3 29 -1.7 50 50 NW 9 15 30.20 1023 10 16 0.00 0.00
2:53 pm 14:53 Mostly Sunny 45 7.2 27 -2.8 49 49 WNW 15 24 30.21 1023 10 16 0.00 0.00
3:53 pm 15:53 Mostly Sunny 43 6.1 26 -3.3 51 51 NW 9 15 30.23 1024 10 16 0.00 0.00
4:53 pm 16:53 Clear 41 5 24 -4.4 51 51 NW 7 11 30.22 1024 10 16 0.00 0.00
5:53 pm 17:53 Clear 39 3.9 25 -3.9 57 57 NW 5 7 30.23 1024 10 16 0.00 0.00
6:53 pm 18:53 Clear 38 3.3 26 -3.3 62 62 NW 5 7 30.24 1024 10 16 0.00 0.00
7:53 pm 19:53 Clear 37 2.8 26 -3.3 65 65 NW 3 6 30.25 1024 10 16 0.00 0.00
8:53 pm 20:53 Cloudy 37 2.8 27 -2.8 67 67 NW 6 9 30.26 1025 10 16 0.00 0.00
9:53 pm 21:53 Cloudy 37 2.8 26 -3.3 65 65 NW 9 15 30.27 1025 10 16 0.00 0.00
10:53 pm 22:53 Clear 35 1.7 25 -3.9 67 67 WNW 8 13 30.27 1025 10 16 0.00 0.00
11:53 pm 23:53 Clear 33 0.6 25 -3.9 72 72 WNW 7 11 30.30 1026 10 16 0.00 0.00

Powered by AerisWeather